Regional Weather Roundup
Issued by NWS Newport/Morehead, NC

Home | Current Version | Previous Version | Text Only | Print | Product List | Glossary On
Versions: 1 2 3 4 5 6 7 8 9 10 11 12 13 14 15 16 17 18 19 20 21 22 23 24 25 26 27 28 29 30 31 32 33 34 35 36 37 38 39 40 41 42 43 44 45 46 47 48 49 50
000
ASUS42 KMHX 260925
RWRMHX
WEATHER ROUNDUP FOR EASTERN NORTH CAROLINA
NATIONAL WEATHER SERVICE NEWPORT/MOREHEAD CITY NC
400 AM EST SUN FEB 26 2017

NOTE: "FAIR" INDICATES FEW OR NO CLOUDS BELOW 12,000 FEET
WITH NO SIGNIFICANT WEATHER AND/OR OBSTRUCTIONS TO VISIBILITY

NCZ015>017-031-032-045>047-102-103-261000-
NORTH COAST

CITY           SKY/WX    TMP DP  RH WIND       PRES   REMARKS
EDENTON        CLEAR     48  26  42 NW8       29.96R
ELIZABETH CITY CLEAR     43  26  51 W9        29.93R
KITTY HAWK     NOT AVBL
MANTEO         CLEAR     51  31  47 NW9G18    29.92R

$$

NCZ045>047-081-094-103-104-261000-
CENTRAL COAST

CITY           SKY/WX    TMP DP  RH WIND       PRES   REMARKS
FRISCO         CLEAR     56  32  40 NW9G21    29.91R

$$

NCZ095-097-098-100-101-261000-
SOUTHERN COAST

CITY           SKY/WX    TMP DP  RH WIND       PRES   REMARKS
BEAUFORT       CLEAR     53  32  44 N10       29.94R
CEDAR ISLAND   NOT AVBL
JACKSONVILLE   CLEAR     50  26  39 NW13      29.96R
PINEY ISLAND   SUNNY    N/A N/A N/A NW18      29.94R
WILMINGTON     CLEAR     50  24  36 NW13      29.97R


$$

NCZ011>013-027>030-043-044-078>080-089-090>093-098-261000-
COASTAL PLAIN

CITY           SKY/WX    TMP DP  RH WIND       PRES   REMARKS
AHOSKIE          N/A     42  22  45 CALM      29.98R
CLINTON        CLEAR     46  23  39 N3        30.01R
ELIZABETHTOWN  CLEAR     48  19  31 NW5       30.01R
GOLDSBORO      CLEAR     47  17  30 NW8       29.97R
GREENVILLE     CLEAR     46  21  36 NW5       30.00R
HAVELOCK       CLEAR     53  30  41 N12       29.95R
KENANSVILLE    CLEAR     46  21  36 NW6       29.99R
KINSTON        CLEAR     47  20  35 NW8       29.99R
NEW BERN       CLEAR     50  26  39 NW10      29.97R
RICHLANDS      CLEAR     49  24  37 N3        29.97R
ROCKY MOUNT    CLEAR     43  22  43 NW7       29.99R
WASHINGTON     CLEAR     45  22  41 NW5       29.98R
WHITEVILLE     CLEAR     48  26  42 CALM      30.00R

$$

AMZ130-135-150-152-154-156-158-170-250-252-270-ANZ085-086-088-633-658-670-261000-
MARINE OBSERVATIONS

STATION/POSITION TIME  TEMP    WIND        PRES    WAVE   SWELL
                       AIR SEA DIR/SP/G            HT/PER HT/PER
                 (UTC) (F)     (DEG/KT/KT) (MB)    (FT/S) (FT/S)
CHESAPEAKE LIGHT NOT AVBL
64 E VA BEACH    0850   50 51  340/ 21/ 27 1011.5    6/10   5/10
DUCK             0900   51 49  320/ 15/ 19 1012.3
2 E DUCK         0900      50                N/A     3/ 9   2/11
OREGON INLET     0900   53 62  300/ 11/ 15 1012.8
13E OREGON INLT  NOT AVBL
HATTERAS CG      0900   56 64  310/ 21/ 25 1012.6
DIAMOND BUOY     0850   60 73  340/ 19/ 23 1012.0    7/10   5/10
CAPE LOOKOUT     0900   56     340/ 17/ 19 1013.4
BEAUFORT LAB     0900   54 63  350/ 11/ 17 1013.1
30 SE NEW RVR IN 0908   59     350/ 17/ 25 1014.0
30 SE NEW RVR IN 0843      66                N/A     5/11   2/11
27 SE WRIGHTSVLE 0908   57 61  340/ 19/ 25 1013.8
5 SE WRIGHTSVLE  0908   55 58  330/ 16/ 23 1014.7
225 S CAPE HAT   0850   72 71  240/ 16/ 19 1012.4    6/10   5/10
41 SE CHARLESTON 0850   60 69  320/ 19/ 25 1015.1    6/ 6   2/ 9

$$




USA.gov is the U.S. government's official web portal to all federal, state and local government web resources and services.